星链-3623 (STARLINK-3623 )

导读

STARLINK-3623是美国太空探索技术公司(SpaceX)于2022年2月25日发射的星链卫星,隶属于星链低轨互联网星座项目。作为全球规模最大的卫星互联网组网计划,它主要为偏远地区等基础设施匮乏区域提供高速低延迟的宽带服务,助力实现全球覆盖的互联网接入目标。

Basic Information
目录编号:
51772
目录名称:
STARLINK-3623
国际标识:
2022-017E
轨道中心:
EARTH
卫星名称:
星链-3623
卫星全名:
星链-3623 (STARLINK-3623 )
卫星状态:
在轨 (已飞行1652 天)
发射日期:
2022-02-25 UTC
国别 :
美国 (US)
星等 :
--
Orbit Information
数据来源 国际轨道数据 AOE轨道数据
星历时间 2026-09-04T08:55:27+0800
8小时前
查看轨道信息
2026-09-04T00:00:00+0800
17小时前
查看轨道信息
半长轴 6840.862km 6840.873km
偏心率 0.0001152 0.0000987
轨道倾角 53.159° 53.157°
近地点辐角 84.788° 79.522°
升交点赤经 248.643° 250.384°
平近点角 275.326° 25.503°
近地点 461.936km 462.06km
远地点 463.514km 463.412km
周期 93.848分钟 93.848分钟
每日圈数 15.343928 15.343893
Detailed Information
固有亮度:
5
最大亮度:
2.5
卫星平台:
Starlink v1.5
覆盖范围:
全球
运营商:
太空探索技术公司
运营商所在国:
美国
制造商(研发单位):
太空探索技术公司
制造商所在国:
美国
使用方式:
暂无
Satellite Introduction
星链(Starlink)计划是由太空探索技术公司(SpaceX)提出的一个巨型低轨卫星互联网星座项目,计划在2019年至2024年间在太空搭建由约1.2万颗卫星组成的“星链”网络,其中1584颗将部署在地球上空550千米处的近地轨道,并从2020年开始工作。该卫星仍在工作。
2D Orbit Map
3D Orbit Map
Orbit Altitude Analysis Chart
Orbit Inclination Analysis Chart
Orbit Comprehensive Analysis Chart
View Comprehensive Chart
Conjunction Data List
Event ID Objects TCA Miss Dist (km) Collision Risk Probability Collision Risk Index (CRI) Action
CDM_260906-093305-177206-491621
2026-09-06T
09:33:47+0000
1.550 km
极远距离
1.838351E-6 低风险 0.4
CDM_260829-053303-818405-177221
2026-08-29T
05:33:26+0000
2.506 km
极远距离
1.708256E-6 低风险 0.4
CDM_260829-190905-177205-327421
2026-08-29T
19:09:30+0000
2.843 km
极远距离
1.270371E-6 低风险 0.37
CDM_260906-080005-177206-491621
2026-09-06T
08:00:00+0000
2.522 km
极远距离
6.1675E-7 极低风险 0.31
CDM_260906-040705-177105-177221
2026-09-06T
04:07:26+0000
2.988 km
极远距离
2.230627E-7 极低风险 0.22